FW8576 Weather Reports


Display with metric or nautical units.
time (UTC)temp
F
wind
direction
speed
MPH
gust
MPH
rain 1hr
in
rain 24hr
in
rain mn
in
humidity
%
barometer
mb
20260503200518 72 123 2.0 5.0 0.00 0.01 0.01 39 1021.5
20260503200015 73 270 2.0 7.0 0.00 0.01 0.01 43 1021.6
20260503195513 73 138 3.0 3.0 0.00 0.01 0.01 39 1021.6
20260503195009 72 294 5.0 7.0 0.00 0.01 0.01 37 1021.5
20260503194506 71 57 0.0 3.0 0.00 0.01 0.01 39 1021.9
20260503194006 71 289 3.0 9.0 0.00 0.01 0.01 40 1021.8
20260503193503 71 64 3.0 6.0 0.00 0.01 0.01 40 1022.0
20260503192958 73 250 4.0 7.0 0.00 0.01 0.01 39 1022.0
20260503192455 73 60 1.0 4.0 0.00 0.01 0.01 41 1022.2
20260503191950 71 285 2.0 6.0 0.00 0.01 0.01 42 1022.4
20260503191448 72 314 0.0 6.0 0.00 0.01 0.01 41 1022.5
20260503190944 72 63 0.0 6.0 0.00 0.01 0.01 42 1022.5
20260503190442 71 229 3.0 7.0 0.00 0.01 0.01 42 1022.7
20260503185939 71 238 0.0 5.0 0.00 0.01 0.01 47 1022.8
20260503185435 72 255 3.0 5.0 0.00 0.01 0.01 44 1022.8
20260503184934 70 225 2.0 9.0 0.00 0.01 0.01 44 1023.0
20260503184431 71 73 0.0 3.0 0.00 0.01 0.01 44 1023.1
20260503183927 70 249 3.0 11.0 0.00 0.01 0.01 43 1023.3
20260503183424 70 258 2.0 6.0 0.00 0.01 0.01 44 1023.1
20260503182921 69 300 3.0 8.0 0.00 0.01 0.01 45 1023.4
20260503182420 69 226 6.0 6.0 0.00 0.01 0.01 45 1023.5
20260503181917 69 270 6.0 9.0 0.00 0.01 0.01 45 1023.4
20260503181414 69 70 3.0 8.0 0.00 0.01 0.01 43 1023.5
20260503180910 69 226 5.0 9.0 0.00 0.01 0.01 44 1023.7
20260503180408 70 305 6.0 6.0 0.00 0.01 0.01 43 1023.7
20260503175904 70 320 3.0 9.0 0.00 0.01 0.01 42 1023.8
20260503175403 70 263 4.0 6.0 0.00 0.01 0.01 46 1023.8
20260503174858 69 249 5.0 6.0 0.00 0.01 0.01 44 1023.8
20260503174356 69 199 3.0 12.0 0.00 0.01 0.01 43 1023.9
20260503173851 70 219 4.0 4.0 0.00 0.01 0.01 43 1023.7
20260503173347 68 293 4.0 6.0 0.00 0.01 0.01 41 1023.9
20260503172844 69 257 5.0 10.0 0.00 0.01 0.01 43 1023.8
20260503172342 69 236 9.0 11.0 0.00 0.01 0.01 42 1024.1
20260503171838 68 220 6.0 10.0 0.00 0.01 0.01 43 1023.8
20260503171335 68 205 10.0 10.0 0.00 0.01 0.01 41 1023.9
20260503170832 68 234 4.0 11.0 0.00 0.01 0.01 44 1024.0
20260503170329 68 226 6.0 7.0 0.00 0.01 0.01 44 1024.1
20260503150721 64 96 2.0 3.0 0.00 0.01 0.01 58 1024.8
20260503150217 63 37 0.0 5.0 0.00 0.01 0.01 60 1025.0
20260503140141 59 85 2.0 5.0 0.00 0.01 0.01 80 1024.4
20260503131111 55 61 2.0 3.0 0.00 0.01 0.01 99 1024.5
20260503130609 54 63 0.0 3.0 0.00 0.01 0.01 99 1024.3
20260503130106 53 71 3.0 3.0 0.00 0.01 0.01 99 1024.3
20260503110458 46 90 0.0 0.0 0.00 0.01 0.01 99 1023.3
20260503090350 48 278 0.0 0.0 0.00 0.00 0.00 99 1021.9
20260503081317 47 74 0.0 0.0 0.00 0.00 0.00 99 1021.5
20260503080814 48 66 0.0 1.0 0.00 0.00 0.00 99 1021.6
20260503080311 48 74 0.0 0.0 0.00 0.00 0.00 99 1021.6
20260503072747 50 157 0.0 1.0 0.00 0.00 0.00 99 1021.3
20260503072244 50 106 0.0 0.0 0.02 0.00 0.00 99 1021.2
20260503071740 49 106 0.0 0.0 0.00 0.00 0.00 99 1021.1
20260503071238 48 106 0.0 0.0 0.00 0.00 0.00 99 1021.2
20260503070734 49 106 0.0 0.0 0.00 0.00 0.00 99 1021.1
20260503070232 50 106 0.0 0.0 0.00 0.00 0.00 99 1021.1
20260503060151 52 291 0.0 2.0 0.00 0.00 0.00 99 1020.8
20260503054638 52 6 0.0 0.0 0.00 0.00 0.00 99 1020.6
20260503054135 52 286 0.0 0.0 0.00 0.00 0.00 99 1021.1
20260503053633 52 7 0.0 1.0 0.00 0.00 0.00 99 1020.5
20260503053132 52 270 0.0 0.0 0.00 0.00 0.00 99 1020.8
20260503052628 52 277 1.0 2.0 0.00 0.00 0.00 99 1020.8
20260503052124 52 82 0.0 0.0 0.00 0.00 0.00 99 1021.1
20260503051619 52 82 0.0 1.0 0.00 0.00 0.00 99 1020.6
20260503051118 52 90 0.0 0.0 0.00 0.00 0.00 99 1020.9
20260503050614 52 270 0.0 1.0 0.00 0.00 0.00 99 1020.8
20260503050111 52 66 0.0 2.0 0.00 0.00 0.00 99 1020.9
20260503045608 53 11 0.0 2.0 0.00 0.00 0.00 99 1021.0
20260503045105 53 15 0.0 1.0 0.00 0.00 0.00 99 1020.6
20260503044601 53 184 0.0 0.0 0.00 0.00 0.00 99 1020.6
20260503044059 53 184 0.0 0.0 0.00 0.00 0.00 99 1020.4
20260503043555 53 184 0.0 0.0 0.00 0.00 0.00 99 1020.6
20260503043052 53 184 0.0 0.0 0.00 0.00 0.00 99 1020.2
20260503042549 53 184 0.0 0.0 0.00 0.00 0.00 99 1020.1
20260503042045 54 184 0.0 2.0 0.00 0.00 0.00 99 1020.3
20260503041543 53 145 0.0 0.0 0.00 0.00 0.00 98 1020.4
20260503041040 53 145 0.0 0.0 0.00 0.00 0.00 98 1020.3
20260503040537 54 145 0.0 0.0 0.00 0.00 0.00 98 1020.3
20260503040034 54 151 0.0 0.0 0.00 0.00 0.00 98 1020.2
20260503035531 54 151 0.0 0.0 0.00 0.38 0.38 98 1020.5
20260503035029 55 151 0.0 0.0 0.00 0.38 0.38 98 1020.3
20260503034526 55 151 0.0 0.0 0.00 0.38 0.38 98 1020.1
20260503034023 55 165 0.0 0.0 0.00 0.38 0.38 98 1020.3
20260503033520 55 165 0.0 0.0 0.00 0.38 0.38 98 1020.2
20260503033018 55 165 0.0 1.0 0.00 0.38 0.38 98 1020.2
20260503032516 55 74 0.0 0.0 0.00 0.38 0.38 98 1020.4
20260503032014 55 74 0.0 0.0 0.00 0.38 0.38 98 1020.3
20260503031511 56 74 0.0 0.0 0.00 0.38 0.38 98 1020.4
20260503031008 56 66 0.0 1.0 0.00 0.38 0.38 98 1020.3
20260503030504 55 74 1.0 1.0 0.00 0.38 0.38 97 1020.3
20260503030002 55 114 0.0 0.0 0.00 0.38 0.38 97 1020.4
20260503025458 55 74 0.0 1.0 0.00 0.38 0.38 97 1020.2
20260503024956 56 12 0.0 2.0 0.00 0.38 0.38 97 1019.9
20260503024451 56 346 0.0 2.0 0.00 0.38 0.38 97 1020.0
20260503023949 56 0 2.0 2.0 0.00 0.38 0.38 97 1020.1
20260503023446 56 0 0.0 0.0 0.00 0.38 0.38 97 1019.7
20260503022943 56 0 0.0 0.0 0.00 0.38 0.38 97 1019.4
20260503022438 56 0 0.0 0.0 0.00 0.38 0.38 97 1019.5
20260503021934 56 0 0.0 0.0 0.00 0.38 0.38 96 1019.5
20260503021430 56 352 0.0 0.0 0.00 0.38 0.38 96 1019.6
20260503020928 56 0 0.0 0.0 0.00 0.38 0.38 96 1019.5
20260503020426 56 340 0.0 0.0 0.00 0.38 0.38 96 1019.2
20260503015922 55 340 0.0 2.0 0.00 0.38 0.38 95 1019.1
20260503015419 55 165 0.0 0.0 0.00 0.38 0.38 95 1018.9
20260503014915 56 165 0.0 1.0 0.00 0.38 0.38 95 1019.0
20260503014412 56 165 0.0 2.0 0.02 0.38 0.38 95 1018.6
20260503013910 56 236 0.0 4.0 0.02 0.38 0.38 95 1018.4
20260503013406 56 180 2.0 4.0 0.00 0.38 0.38 95 1018.3
20260503012903 57 103 2.0 4.0 0.00 0.38 0.38 94 1018.1
20260503012401 57 187 1.0 7.0 0.02 0.38 0.38 94 1018.2
20260503011857 57 308 2.0 3.0 0.02 0.38 0.38 93 1018.2
20260503011354 57 250 2.0 3.0 0.00 0.37 0.37 93 1018.3
20260503010851 56 190 0.0 2.0 0.00 0.37 0.37 93 1018.1
20260503010348 57 151 0.0 2.0 0.00 0.37 0.37 93 1017.7
20260503005845 56 194 1.0 3.0 0.00 0.37 0.37 93 1017.9
20260503005343 56 346 0.0 0.0 0.00 0.37 0.37 93 1017.7
20260503004838 57 83 0.0 1.0 0.00 0.37 0.37 93 1017.5
20260503004336 57 159 2.0 3.0 0.00 0.37 0.37 93 1017.5
20260503003833 57 251 0.0 2.0 0.00 0.37 0.37 92 1017.3
20260503003330 57 165 3.0 4.0 0.00 0.37 0.37 92 1017.3
20260503002827 57 180 0.0 2.0 0.00 0.37 0.37 91 1017.4
20260503002324 57 126 0.0 3.0 0.00 0.37 0.37 90 1017.2
20260503001820 57 69 0.0 0.0 0.00 0.37 0.37 90 1017.3
20260503001317 58 81 0.0 1.0 0.00 0.37 0.37 89 1017.2
20260503000815 58 102 2.0 3.0 0.00 0.37 0.37 89 1016.9
20260503000312 58 138 3.0 5.0 0.00 0.37 0.37 88 1016.8
20260502235809 58 114 0.0 2.0 0.00 0.37 0.37 88 1017.0
20260502235306 58 99 0.0 2.0 0.00 0.37 0.37 87 1016.7
20260502234803 59 74 1.0 3.0 0.00 0.37 0.37 87 1016.7
20260502234300 59 109 0.0 1.0 0.00 0.37 0.37 87 1016.8
20260502233755 59 101 0.0 3.0 0.00 0.37 0.37 86 1016.7
20260502233253 59 90 0.0 2.0 0.00 0.37 0.37 86 1016.6
20260502232749 59 0 0.0 4.0 0.00 0.37 0.37 86 1016.5
20260502232246 59 121 0.0 4.0 0.00 0.37 0.37 85 1016.6
20260502231743 60 126 3.0 3.0 0.00 0.37 0.37 84 1016.6
20260502231240 60 130 3.0 4.0 0.00 0.37 0.37 83 1016.2
20260502230739 61 180 0.0 2.0 0.00 0.37 0.37 83 1016.3
20260502230237 61 125 2.0 4.0 0.00 0.37 0.37 82 1016.2
20260502225733 61 29 2.0 5.0 0.00 0.37 0.37 84 1016.2
20260502225230 60 57 2.0 4.0 0.00 0.37 0.37 85 1016.2
20260502224726 60 49 5.0 5.0 0.00 0.37 0.37 85 1016.3
20260502224223 60 0 0.0 5.0 0.00 0.37 0.37 84 1016.3
20260502223720 62 145 1.0 3.0 0.00 0.37 0.37 83 1016.2
20260502223218 62 71 1.0 2.0 0.00 0.37 0.37 84 1016.1
20260502222716 60 55 2.0 4.0 0.00 0.37 0.37 84 1016.1
20260502222212 60 121 4.0 5.0 0.00 0.37 0.37 85 1016.2
20260502221708 60 147 2.0 3.0 0.00 0.37 0.37 86 1016.3
20260502221205 60 23 0.0 4.0 0.00 0.37 0.37 86 1016.3
20260502220701 60 50 2.0 5.0 0.00 0.37 0.37 86 1016.1
20260502220158 60 63 2.0 5.0 0.00 0.37 0.37 87 1016.1
20260502215655 60 14 0.0 4.0 0.00 0.37 0.37 88 1016.1
20260502215151 59 99 0.0 6.0 0.00 0.37 0.37 89 1016.3
20260502214649 59 51 2.0 4.0 0.00 0.37 0.37 89 1016.0
20260502214146 59 74 5.0 5.0 0.00 0.37 0.37 88 1016.1
20260502213643 61 18 1.0 5.0 0.00 0.37 0.37 87 1015.9
20260502213140 62 28 2.0 3.0 0.00 0.37 0.37 86 1015.7
20260502212639 61 258 2.0 5.0 0.00 0.37 0.37 86 1015.7
20260502212137 60 90 3.0 4.0 0.00 0.37 0.37 86 1015.9
20260502211632 61 105 3.0 4.0 0.00 0.37 0.37 86 1015.7
20260502211129 61 90 2.0 5.0 0.00 0.37 0.37 86 1015.8
20260502210627 61 55 2.0 9.0 0.00 0.37 0.37 85 1015.7
20260502210124 61 52 2.0 4.0 0.00 0.37 0.37 85 1015.7
20260502205620 62 148 2.0 4.0 0.00 0.37 0.37 85 1015.6
20260502205117 62 112 2.0 5.0 0.00 0.37 0.37 85 1015.7
20260502204614 62 104 5.0 8.0 0.00 0.37 0.37 84 1015.5
20260502204111 62 59 2.0 5.0 0.00 0.37 0.37 87 1015.5
20260502203609 61 92 5.0 5.0 0.00 0.37 0.37 87 1015.7
20260502203106 61 69 3.0 3.0 0.00 0.37 0.37 88 1015.8
20260502202601 60 55 4.0 7.0 0.00 0.37 0.37 87 1016.0
20260502202100 61 90 1.0 5.0 0.00 0.37 0.37 88 1015.9
20260502201556 61 98 0.0 5.0 0.00 0.37 0.37 87 1016.0
20260502201052 61 29 0.0 1.0 0.00 0.37 0.37 87 1016.0